Weather in Nashville

United States     36°09′53″N   86°46′59″W
temp.,
°C
wind,
m/s
gust,
m/s
humid.,
%
clouds,
%
prec.,
mm/h
press.,
hPa
HPBL,
m
18 september, sat
sat1801:00+21se1498100 6.0 1018184
04:00+21sse1199100 8.0 101833
07:00+21ese1399100 15.9 1019237
10:00+23ene2393100 1.3 1020361
13:00+22e3795100 2.3 1020336
16:00+22e2896100 1.9 1018399
19:00+21ene2596100 1.9 1018207
22:00+21e2696100 0.0 1019195
19 september, sun
sun1901:00+20se2595100 0.0 1019161
04:00+20ese129498 0.0 101852
07:00+20ese1294100 0.0 101959
10:00+24e2377100 0.0 1019469
13:00+26se3572100 0.4 10171048
16:00+22se2896100 1.4 1017461
19:00+21se31097100 2.6 1017593
22:00+21se31096100 0.3 1018487
20 september, mon
mon2001:00+20ese3996100 0.4 1017485
04:00+20ese3998100 4.2 1016496
07:00+20se3998100 5.0 1017463
10:00+21sse31097100 0.8 1018748
13:00+23sse4891100 1.6 1017780
16:00+24sse3789100 2.0 1015718
19:00+22se289572 2.3 1016351
22:00+21se41196100 1.2 1017547
21 september, tue
tue2101:00+21sse31197100 4.4 1017652
04:00+21sse3109792 0.8 1017578
07:00+21sse2897100 0.8 1018417
10:00+22s289590 0.3 1019495
13:00+27ssw357099 0.4 10171152
16:00+26sw247498 0.4 1016521
19:00+24ssw118711 0.6 101525
22:00+21nw4897100 8.3 1017476
22 september, wed
wed2201:00+19nw4898100 12.8 1018538
04:00+18nnw4996100 1.3 1018615
07:00+16n41091100 1.4 1020731
10:00+18nne59700 0.0 1022949
13:00+21n57520 0.0 10211646
16:00+21n58510 0.0 10201703
19:00+17n311570 0.0 1021581
22:00+15n412580 0.0 1022494